KAC99J OKKK-OTHH

Flight info

Callsign KAC99J
Flight time N/A
Altitude 27000
Route BOXIK B416 IMDOX P975 LONOS L703 HAYYA
Aircraft A320/M-SDE3FGHIRWY/LB1

Departure

Time 2026-04-27 16:04
Airport Kuwait International Airport (OKKK)

Arrival

Time N/A
Airport Hamad International Airport (OTHH)
Time Latitude Longitude Altitude Speed Heading
2026-04-27 15:29 29.23727 47.97212 170 ft 0 kts 25°
2026-04-27 15:49 29.23725 47.97210 170 ft 2 kts 25°
2026-04-27 15:49 29.23710 47.97202 170 ft 2 kts 26°
2026-04-27 15:49 29.23695 47.97194 170 ft 2 kts 27°
2026-04-27 15:49 29.23680 47.97185 170 ft 2 kts 28°
2026-04-27 15:50 29.23665 47.97177 170 ft 2 kts 39°
2026-04-27 15:50 29.23655 47.97163 170 ft 2 kts 74°
2026-04-27 15:50 29.23653 47.97144 170 ft 2 kts 114°
2026-04-27 15:50 29.23661 47.97130 170 ft 1 kts 152°
2026-04-27 15:51 29.23663 47.97128 170 ft 0 kts 161°
2026-04-27 15:56 29.23660 47.97129 170 ft 0 kts 161°
2026-04-27 15:58 29.23655 47.97131 170 ft 3 kts 161°
2026-04-27 15:58 29.23623 47.97161 170 ft 9 kts 133°
2026-04-27 15:58 29.23574 47.97192 170 ft 9 kts 183°
2026-04-27 15:58 29.23525 47.97123 170 ft 15 kts 244°
2026-04-27 15:59 29.23501 47.97063 170 ft 5 kts 245°
2026-04-27 15:59 29.23494 47.97000 170 ft 11 kts 277°
2026-04-27 15:59 29.23503 47.96931 170 ft 15 kts 277°
2026-04-27 15:59 29.23519 47.96808 169 ft 2 kts 278°
2026-04-27 16:00 29.23525 47.96764 169 ft 9 kts 280°
2026-04-27 16:00 29.23536 47.96705 168 ft 14 kts 287°
2026-04-27 16:00 29.23671 47.96605 166 ft 22 kts 336°
2026-04-27 16:00 29.23830 47.96520 165 ft 29 kts 334°
2026-04-27 16:01 29.24025 47.96415 164 ft 32 kts 335°
2026-04-27 16:01 29.24157 47.96345 164 ft 1 kts 330°
2026-04-27 16:01 29.24158 47.96341 164 ft 1 kts 313°
2026-04-27 16:01 29.24164 47.96309 163 ft 8 kts 258°
2026-04-27 16:02 29.24141 47.96249 161 ft 0 kts 244°
2026-04-27 16:02 29.24139 47.96245 161 ft 1 kts 244°
2026-04-27 16:02 29.24133 47.96228 160 ft 3 kts 244°
2026-04-27 16:02 29.24124 47.96210 160 ft 4 kts 239°
2026-04-27 16:03 29.24078 47.96191 159 ft 10 kts 182°
2026-04-27 16:03 29.24001 47.96190 159 ft 9 kts 180°
2026-04-27 16:03 29.23951 47.96203 158 ft 9 kts 154°
2026-04-27 16:03 29.23841 47.96262 159 ft 41 kts 155°
2026-04-27 16:04 29.23344 47.96530 163 ft 113 kts 155°
2026-04-27 16:04 29.22465 47.97000 258 ft 155 kts 154°
2026-04-27 16:04 29.21493 47.97528 863 ft 159 kts 153°
2026-04-27 16:04 29.20463 47.98099 1509 ft 166 kts 156°
2026-04-27 16:05 29.19423 47.98733 2153 ft 176 kts 152°
2026-04-27 16:05 29.18352 47.99576 2478 ft 197 kts 146°
2026-04-27 16:05 29.17288 48.00638 2812 ft 217 kts 140°
2026-04-27 16:05 29.16202 48.02000 3177 ft 245 kts 133°
2026-04-27 16:06 29.15179 48.03672 3730 ft 267 kts 126°
2026-04-27 16:06 29.14284 48.05562 4127 ft 272 kts 123°
2026-04-27 16:06 29.13401 48.07500 4374 ft 278 kts 123°
2026-04-27 16:06 29.12523 48.09433 4261 ft 273 kts 123°
2026-04-27 16:07 29.11644 48.11364 4314 ft 278 kts 123°
2026-04-27 16:07 29.10736 48.13347 4854 ft 281 kts 123°
2026-04-27 16:07 29.09839 48.15312 4976 ft 277 kts 123°
2026-04-27 16:07 29.08956 48.17248 5011 ft 277 kts 123°
2026-04-27 16:08 29.08075 48.19174 5015 ft 277 kts 123°
2026-04-27 16:08 29.07191 48.21105 5017 ft 277 kts 123°
2026-04-27 16:08 29.06292 48.23075 5017 ft 277 kts 123°
2026-04-27 16:08 29.05396 48.25040 5024 ft 278 kts 122°
2026-04-27 16:09 29.04503 48.26997 5045 ft 280 kts 123°
2026-04-27 16:09 29.02657 48.31014 6562 ft 287 kts 122°
2026-04-27 16:09 29.01728 48.33038 6855 ft 286 kts 122°
2026-04-27 16:10 28.99874 48.37076 7033 ft 288 kts 122°
2026-04-27 16:10 28.98018 48.41111 7040 ft 289 kts 122°
2026-04-27 16:11 28.97071 48.43167 7039 ft 288 kts 122°
2026-04-27 16:11 28.95183 48.47270 8104 ft 295 kts 121°
2026-04-27 16:12 28.93152 48.51668 9078 ft 338 kts 120°
2026-04-27 16:12 28.92011 48.54127 9375 ft 362 kts 120°
2026-04-27 16:12 28.89517 48.59538 9892 ft 403 kts 119°
2026-04-27 16:13 28.88198 48.62407 10488 ft 410 kts 119°
2026-04-27 16:13 28.85514 48.68217 11810 ft 418 kts 119°
2026-04-27 16:13 28.84148 48.71164 12464 ft 422 kts 119°
2026-04-27 16:14 28.81374 48.77149 13739 ft 430 kts 119°
2026-04-27 16:14 28.78531 48.83180 14807 ft 439 kts 120°
2026-04-27 16:15 28.75501 48.89330 15853 ft 448 kts 121°
2026-04-27 16:15 28.72395 48.95568 16859 ft 457 kts 122°
2026-04-27 16:16 28.69266 49.01898 17850 ft 466 kts 122°
2026-04-27 16:16 28.66077 49.08395 18679 ft 474 kts 122°
2026-04-27 16:17 28.62834 49.14999 19465 ft 482 kts 122°
2026-04-27 16:17 28.59421 49.21614 20205 ft 486 kts 130°
2026-04-27 16:18 28.54411 49.26593 20912 ft 477 kts 156°
2026-04-27 16:18 28.48751 49.30655 21630 ft 491 kts 144°
2026-04-27 16:19 28.46148 49.33214 21975 ft 494 kts 143°
2026-04-27 16:19 28.43556 49.35785 22322 ft 497 kts 143°
2026-04-27 16:20 28.35696 49.43632 23338 ft 505 kts 144°
2026-04-27 16:20 28.33035 49.46274 23614 ft 508 kts 144°
2026-04-27 16:20 28.27689 49.51563 24139 ft 512 kts 144°
2026-04-27 16:21 28.24993 49.54220 24396 ft 514 kts 144°
2026-04-27 16:21 28.16695 49.62013 25163 ft 517 kts 148°
2026-04-27 16:22 28.13805 49.64456 25421 ft 518 kts 149°
2026-04-27 16:22 28.07951 49.69284 25946 ft 522 kts 150°
2026-04-27 16:22 28.05070 49.71689 26257 ft 523 kts 149°
2026-04-27 16:23 28.02132 49.74116 26563 ft 522 kts 150°